Weather in Novoye Mashezero

Russia / Republic of Karelia     64°24′30″N   33°24′46″E
temp.,
°C
wind,
m/s
gust,
m/s
humid.,
%
clouds,
%
prec.,
mm/h
press.,
hPa
HPBL,
m
26 july, mon
mon2600:00+15w2465100 0.0 101586
03:00+14wnw2682100 0.1 1015169
06:00+14wnw379124 0.4 1016375
09:00+18nnw366418 0.4 1017965
12:00+21nnw584375 0.0 10181992
15:00+21nnw4746100 0.0 10181777
18:00+21n374430 0.0 10191669
21:00+15ese35648 0.0 1020220
27 july, tue
tue2700:00+10se237544 0.0 102260
03:00+9s2277100 0.0 102220
06:00+12ssw017174 0.0 102266
09:00+19nne11514 0.0 1021632
12:00+23nnw133850 0.0 10201506
15:00+22nw334298 0.0 1019916
18:00+24nw233843 0.0 10171063
21:00+19ese11576 0.0 101611
28 july, wed
wed2800:00+15s266946 0.0 101699
03:00+14wsw258314 0.1 101493
06:00+15w39905 1.3 1012242
09:00+22wnw485294 1.3 1010603
12:00+26nw473748 0.0 10091518
15:00+28nw463315 0.0 10072574
18:00+19e46703 0.1 1007284
21:00+15ene2585100 0.6 1006141
29 july, thu
thu2900:00+13ene239351 1.3 100464
03:00+13ssw25966 2.4 1003112
06:00+15ssw259351 0.2 1001130
09:00+20wsw12695 0.4 999365
12:00+26wsw134399 0.0 9971375
15:00+25ese2345100 0.0 9951374
18:00+16ene4895100 3.8 995334
21:00+14e399576 5.4 993263
30 july, fri
fri3000:00+12ne369878 0.0 993185
03:00+11ne259783 0.0 993140
06:00+12n2395100 0.0 994130
09:00+16nw2281100 0.0 995442
12:00+19wsw3571100 0.1 995869
15:00+21wsw4862100 0.8 9961365
18:00+21sw5947100 0.2 9961121
21:00+19sw41153100 0.2 996600